When you browse on this site, cookies collect data to enhance your experience and personalize the content and advertising you see.
Visit our Privacy Policy to learn more. By continuing to use the site, you agree to this use of cookies and data.
  • En España
  • Lista de países
  • Para 7 días
  • Temperatura del agua
  • El tiempo en el mapa
  • Informadores
  • user-avatar
    Iniciar sesión

    Tiempo cada hora El Quseir

    Hoy, 22 Octubre, Martes

    Tiempo Temperatura Precipitaciones Viento Presión Humedad
    00:00 +27°C° 0 mm 4 mps 756 mmHg 35%
    01:00 +27°C° 0 mm 4 mps 755 mmHg 35%
    02:00 +26°C° 0 mm 4 mps 755 mmHg 36%
    03:00 +26°C° 0 mm 4 mps 755 mmHg 38%
    04:00 +25°C° 0 mm 4 mps 755 mmHg 39%
    05:00 +25°C° 0 mm 4 mps 755 mmHg 40%
    06:00 +27°C° 0 mm 4 mps 756 mmHg 35%
    07:00 +30°C° 0 mm 4 mps 756 mmHg 30%
    08:00 +33°C° 0 mm 4 mps 756 mmHg 25%
    09:00 +35°C° 0 mm 4 mps 756 mmHg 24%
    10:00 +36°C° 0 mm 4 mps 756 mmHg 24%
    11:00 +37°C° 0 mm 4 mps 756 mmHg 23%
    12:00 +37°C° 0 mm 4 mps 756 mmHg 25%
    13:00 +37°C° 0 mm 3 mps 755 mmHg 26%
    14:00 +36°C° 0 mm 3 mps 754 mmHg 28%
    15:00 +35°C° 0 mm 2 mps 754 mmHg 31%
    16:00 +34°C° 0 mm 2 mps 755 mmHg 35%
    17:00 +31°C° 0 mm 1 mps 755 mmHg 38%
    18:00 +30°C° 0 mm 2 mps 755 mmHg 39%
    19:00 +29°C° 0 mm 2 mps 755 mmHg 39%
    20:00 +28°C° 0 mm 3 mps 755 mmHg 39%
    21:00 +28°C° 0 mm 3 mps 755 mmHg 37%
    22:00 +28°C° 0 mm 3 mps 756 mmHg 36%
    23:00 +29°C° 0 mm 2 mps 756 mmHg 34%

    Mañana, 23 Octubre, Miércoles

    Tiempo Temperatura Precipitaciones Viento Presión Humedad
    00:00 +27°C° 0 mm 4 mps 755 mmHg 36%
    01:00 +26°C° 0 mm 5 mps 755 mmHg 39%
    02:00 +24°C° 0 mm 6 mps 755 mmHg 41%
    03:00 +24°C° 0 mm 6 mps 755 mmHg 41%
    04:00 +26°C° 0 mm 6 mps 756 mmHg 41%
    05:00 +26°C° 0 mm 6 mps 756 mmHg 41%
    06:00 +27°C° 0 mm 6 mps 756 mmHg 39%
    07:00 +29°C° 0 mm 5 mps 756 mmHg 38%
    08:00 +30°C° 0 mm 5 mps 757 mmHg 36%
    09:00 +32°C° 0 mm 5 mps 757 mmHg 36%
    10:00 +34°C° 0 mm 5 mps 757 mmHg 36%
    11:00 +35°C° 0 mm 6 mps 757 mmHg 35%
    12:00 +35°C° 0 mm 5 mps 756 mmHg 35%
    13:00 +34°C° 0 mm 4 mps 756 mmHg 35%
    14:00 +34°C° 0 mm 3 mps 755 mmHg 35%
    15:00 +32°C° 0 mm 2 mps 755 mmHg 41%
    16:00 +31°C° 0 mm 2 mps 755 mmHg 46%
    17:00 +29°C° 0 mm 1 mps 755 mmHg 51%
    18:00 +28°C° 0 mm 1 mps 756 mmHg 56%
    19:00 +26°C° 0 mm 2 mps 756 mmHg 61%
    20:00 +25°C° 0 mm 2 mps 757 mmHg 66%
    21:00 +25°C° 0 mm 3 mps 757 mmHg 64%
    22:00 +25°C° 0 mm 4 mps 757 mmHg 62%
    23:00 +25°C° 0 mm 5 mps 757 mmHg 60%

    Pasado mañana, 24 Octubre, Jueves

    Tiempo Temperatura Precipitaciones Viento Presión Humedad
    00:00 +23°C° 0 mm 6 mps 757 mmHg 60%
    01:00 +23°C° 0 mm 6 mps 757 mmHg 60%
    02:00 +22°C° 0 mm 7 mps 756 mmHg 60%
    03:00 +22°C° 0 mm 7 mps 756 mmHg 58%
    04:00 +22°C° 0 mm 7 mps 756 mmHg 56%
    05:00 +22°C° 0 mm 6 mps 756 mmHg 54%
    06:00 +24°C° 0 mm 6 mps 757 mmHg 48%
    07:00 +27°C° 0 mm 6 mps 757 mmHg 41%
    08:00 +29°C° 0 mm 6 mps 758 mmHg 35%
    09:00 +30°C° 0 mm 6 mps 758 mmHg 32%
    10:00 +32°C° 0 mm 6 mps 757 mmHg 29%
    11:00 +34°C° 0 mm 6 mps 757 mmHg 26%
    12:00 +34°C° 0 mm 6 mps 757 mmHg 27%
    13:00 +33°C° 0 mm 5 mps 757 mmHg 29%
    14:00 +33°C° 0 mm 5 mps 756 mmHg 31%
    15:00 +32°C° 0 mm 5 mps 756 mmHg 37%
    16:00 +29°C° 0 mm 4 mps 756 mmHg 43%
    17:00 +27°C° 0 mm 3 mps 756 mmHg 50%
    18:00 +26°C° 0 mm 3 mps 756 mmHg 53%
    19:00 +25°C° 0 mm 2 mps 757 mmHg 57%
    20:00 +23°C° 0 mm 2 mps 757 mmHg 61%
    21:00 +23°C° 0 mm 2 mps 757 mmHg 58%
    22:00 +22°C° 0 mm 3 mps 757 mmHg 55%
    23:00 +22°C° 0 mm 3 mps 757 mmHg 52%

    25 Octubre, Viernes

    Tiempo Temperatura Precipitaciones Viento Presión Humedad
    00:00 +21°C° 0 mm 4 mps 757 mmHg 50%
    01:00 +21°C° 0 mm 4 mps 757 mmHg 49%
    02:00 +20°C° 0 mm 5 mps 757 mmHg 48%
    03:00 +20°C° 0 mm 5 mps 757 mmHg 48%
    04:00 +20°C° 0 mm 5 mps 757 mmHg 48%
    05:00 +20°C° 0 mm 5 mps 757 mmHg 49%
    06:00 +23°C° 0 mm 6 mps 757 mmHg 43%
    07:00 +26°C° 0 mm 6 mps 758 mmHg 38%
    08:00 +28°C° 0 mm 6 mps 758 mmHg 33%
    09:00 +29°C° 0 mm 6 mps 758 mmHg 30%
    10:00 +30°C° 0 mm 6 mps 758 mmHg 28%
    11:00 +33°C° 0 mm 6 mps 758 mmHg 25%
    12:00 +33°C° 0 mm 6 mps 757 mmHg 28%
    13:00 +32°C° 0 mm 6 mps 757 mmHg 31%
    14:00 +32°C° 0 mm 6 mps 756 mmHg 34%
    15:00 +30°C° 0 mm 5 mps 757 mmHg 38%
    16:00 +29°C° 0 mm 4 mps 757 mmHg 42%
    17:00 +28°C° 0 mm 4 mps 757 mmHg 46%
    18:00 +26°C° 0 mm 5 mps 757 mmHg 49%
    19:00 +25°C° 0 mm 5 mps 758 mmHg 51%
    20:00 +23°C° 0 mm 6 mps 758 mmHg 54%
    21:00 +23°C° 0 mm 7 mps 758 mmHg 54%
    22:00 +23°C° 0 mm 7 mps 758 mmHg 53%
    23:00 +22°C° 0 mm 7 mps 758 mmHg 52%

    26 Octubre, Sábado

    Tiempo Temperatura Precipitaciones Viento Presión Humedad
    00:00 +22°C° 0 mm 7 mps 758 mmHg 53%
    01:00 +22°C° 0 mm 7 mps 758 mmHg 54%
    02:00 +21°C° 0 mm 6 mps 758 mmHg 55%
    03:00 +21°C° 0 mm 7 mps 758 mmHg 56%
    04:00 +21°C° 0 mm 8 mps 758 mmHg 58%
    05:00 +20°C° 0 mm 8 mps 758 mmHg 60%
    06:00 +22°C° 0 mm 8 mps 759 mmHg 54%
    07:00 +24°C° 0 mm 7 mps 759 mmHg 48%
    08:00 +27°C° 0 mm 7 mps 760 mmHg 42%
    09:00 +29°C° 0 mm 7 mps 759 mmHg 38%
    10:00 +31°C° 0 mm 8 mps 759 mmHg 35%
    11:00 +32°C° 0 mm 8 mps 759 mmHg 32%
    12:00 +32°C° 0 mm 8 mps 759 mmHg 35%
    13:00 +32°C° 0 mm 9 mps 758 mmHg 38%
    14:00 +32°C° 0 mm 10 mps 757 mmHg 41%
    15:00 +31°C° 0 mm 9 mps 757 mmHg 44%
    16:00 +29°C° 0 mm 8 mps 758 mmHg 47%
    17:00 +28°C° 0 mm 8 mps 758 mmHg 51%
    18:00 +27°C° 0 mm 8 mps 758 mmHg 53%
    19:00 +26°C° 0 mm 8 mps 758 mmHg 56%
    20:00 +26°C° 0 mm 8 mps 758 mmHg 59%
    21:00 +24°C° 0 mm 8 mps 758 mmHg 56%
    22:00 +24°C° 0 mm 8 mps 758 mmHg 53%
    23:00 +24°C° 0 mm 8 mps 758 mmHg 51%

    27 Octubre, Domingo

    Tiempo Temperatura Precipitaciones Viento Presión Humedad
    00:00 +24°C° 0 mm 8 mps 758 mmHg 51%
    01:00 +23°C° 0 mm 8 mps 758 mmHg 51%
    02:00 +23°C° 0 mm 7 mps 757 mmHg 52%
    03:00 +22°C° 0 mm 8 mps 758 mmHg 52%
    04:00 +21°C° 0 mm 8 mps 758 mmHg 52%
    05:00 +21°C° 0 mm 9 mps 758 mmHg 52%
    06:00 +23°C° 0 mm 8 mps 758 mmHg 46%
    07:00 +24°C° 0 mm 8 mps 758 mmHg 41%
    08:00 +27°C° 0 mm 8 mps 758 mmHg 36%
    09:00 +29°C° 0 mm 8 mps 758 mmHg 34%
    10:00 +31°C° 0 mm 8 mps 758 mmHg 33%
    11:00 +32°C° 0 mm 8 mps 758 mmHg 31%
    12:00 +32°C° 0 mm 7 mps 757 mmHg 32%
    13:00 +32°C° 0 mm 7 mps 757 mmHg 33%
    14:00 +32°C° 0 mm 7 mps 756 mmHg 34%
    15:00 +30°C° 0 mm 7 mps 756 mmHg 41%
    16:00 +28°C° 0 mm 6 mps 756 mmHg 47%
    17:00 +27°C° 0 mm 6 mps 756 mmHg 53%
    18:00 +26°C° 0 mm 7 mps 756 mmHg 55%
    19:00 +24°C° 0 mm 7 mps 757 mmHg 57%
    20:00 +23°C° 0 mm 8 mps 757 mmHg 59%
    21:00 +23°C° 0 mm 8 mps 757 mmHg 56%
    22:00 +23°C° 0 mm 8 mps 757 mmHg 53%
    23:00 +22°C° 0 mm 9 mps 757 mmHg 50%

    28 Octubre, Lunes

    Tiempo Temperatura Precipitaciones Viento Presión Humedad
    00:00 +22°C° 0 mm 9 mps 757 mmHg 50%
    01:00 +22°C° 0 mm 9 mps 757 mmHg 50%
    02:00 +21°C° 0 mm 9 mps 756 mmHg 50%
    03:00 +21°C° 0 mm 9 mps 756 mmHg 51%
    04:00 +21°C° 0 mm 9 mps 756 mmHg 52%
    05:00 +19°C° 0 mm 9 mps 756 mmHg 54%
    06:00 +22°C° 0 mm 9 mps 757 mmHg 48%
    07:00 +24°C° 0 mm 9 mps 757 mmHg 42%
    08:00 +27°C° 0 mm 9 mps 757 mmHg 36%
    09:00 +29°C° 0 mm 8 mps 757 mmHg 35%
    10:00 +31°C° 0 mm 8 mps 757 mmHg 33%
    11:00 +33°C° 0 mm 8 mps 757 mmHg 32%
    12:00 +33°C° 0 mm 8 mps 756 mmHg 33%
    13:00 +33°C° 0 mm 7 mps 756 mmHg 35%
    14:00 +33°C° 0 mm 7 mps 755 mmHg 37%
    15:00 +30°C° 0 mm 7 mps 755 mmHg 43%
    16:00 +29°C° 0 mm 6 mps 755 mmHg 48%
    17:00 +27°C° 0 mm 6 mps 755 mmHg 54%
    18:00 +26°C° 0 mm 7 mps 756 mmHg 56%
    19:00 +24°C° 0 mm 7 mps 756 mmHg 57%
    20:00 +22°C° 0 mm 8 mps 757 mmHg 59%
    21:00 +22°C° 0 mm 8 mps 756 mmHg 58%
    22:00 +22°C° 0 mm 7 mps 756 mmHg 56%
    23:00 +21°C° 0 mm 7 mps 756 mmHg 55%
    Mostrar más